Wind_Speed
19 19 18 16 16 18 17 17 20 21 20 18 17 17 16 16 16 15 16 17 17 17 16 15 15 15 14 14 15 16 14 12 13 13 14 13 12 13 14 15 16 17 17 17 17 16 16 16 16 15 16 17 16 14 14 15 18 18 16 18 23 21 19 20 18 12 12 13 13 12 11 10 10 6 1 3 3 2 2 3 3 4 5 4 5
19 18 18 17 17 18 17 17 19 19 18 17 17 17 16 16 15 15 17 17 17 17 15 14 15 14 14 14 14 15 14 14 14 14 15 15 14 15 15 16 17 17 18 18 18 17 17 17 15 14 14 15 14 11 11 14 17 19 18 17 18 16 14 18 20 16 14 14 12 11 10 10 11 9 4 0 2 3 2 2 3 3 4 4 7
16 15 16 16 17 18 19 18 18 18 17 17 17 17 17 16 15 16 16 15 16 16 14 13 13 13 14 14 13 14 14 13 13 15 15 14 15 16 16 15 17 18 19 18 17 17 17 16 15 14 14 15 14 12 13 16 16 17 17 17 17 15 13 16 19 18 17 16 13 11 9 9 11 10 7 4 3 2 2 2 2 3 5 7 10
12 11 15 18 18 19 20 20 18 18 17 15 16 18 17 16 15 15 15 14 14 14 14 12 12 13 15 14 13 14 14 12 14 16 14 12 17 20 18 16 18 19 19 17 16 15 16 15 14 14 16 18 18 15 14 14 13 12 13 13 15 15 13 13 14 16 18 17 15 12 9 9 9 9 9 7 3 0 2 5 6 5 5 7 9
11 9 10 14 18 20 21 19 17 17 16 13 15 17 15 15 15 14 13 13 12 12 14 12 11 14 15 13 14 15 14 12 15 16 13 13 19 21 19 18 19 19 17 16 15 15 15 15 14 14 15 16 16 14 12 11 10 10 9 9 12 14 13 11 10 13 16 17 18 14 10 10 8 8 11 10 5 5 6 6 3 1 4 6 6
11 12 10 8 8 10 12 12 11 13 14 12 14 16 14 14 15 13 12 12 10 11 13 12 11 13 13 13 15 15 14 13 16 17 15 14 18 20 19 17 17 18 18 16 15 14 13 14 15 15 14 13 13 11 11 11 11 11 10 9 10 11 11 10 10 11 13 16 19 16 12 10 7 6 9 9 8 8 5 2 1 3 6 7 7
11 13 12 8 5 4 6 10 11 11 11 13 15 15 14 14 14 12 11 11 10 10 12 11 11 12 12 13 15 14 13 14 16 17 17 16 17 18 18 16 14 16 18 16 15 14 13 14 15 14 13 12 11 12 12 12 13 13 12 11 10 9 8 7 7 8 9 11 13 13 11 9 6 6 8 7 7 5 2 0 1 2 5 7 10
12 12 10 9 9 9 11 15 14 9 8 11 13 13 13 13 13 12 11 12 10 9 11 10 10 11 10 11 15 15 14 15 17 17 17 17 17 18 18 16 14 15 17 16 15 14 13 12 12 12 13 12 12 13 14 13 13 14 13 12 10 10 9 6 4 4 4 4 3 4 10 12 9 6 8 7 7 5 2 1 1 4 6 9 12
16 15 13 12 11 11 12 14 14 10 8 10 11 11 11 11 12 11 10 12 12 9 10 10 8 9 9 9 13 16 15 16 18 17 16 17 17 17 18 18 16 16 16 16 16 15 14 14 13 14 14 13 13 13 13 13 12 11 11 12 12 11 10 8 6 5 3 1 4 4 5 8 8 5 7 6 6 5 3 2 4 7 10 13 13
18 15 15 14 13 13 12 12 13 10 8 8 8 8 9 9 11 10 8 10 12 11 10 10 9 9 10 8 10 16 18 17 18 18 16 17 18 17 17 18 17 17 16 17 17 17 17 16 15 16 16 15 14 14 13 12 11 11 10 11 13 13 12 10 8 6 4 2 2 3 6 8 6 6 8 7 5 2 3 5 7 10 13 17 16
18 16 15 13 12 11 8 7 7 5 5 6 6 5 6 7 10 11 9 7 10 11 11 10 9 10 12 11 9 13 18 20 19 19 18 18 19 19 18 17 17 16 16 17 18 19 19 18 17 18 18 17 16 15 14 13 12 12 12 12 13 14 14 12 10 8 5 3 3 4 8 11 9 7 7 5 3 3 6 8 10 12 14 15 15
22 19 17 15 12 10 9 8 6 3 2 2 2 2 4 6 7 10 10 7 6 8 10 11 10 10 12 14 12 12 15 18 19 19 20 20 19 20 19 18 17 17 17 17 18 20 21 21 19 19 18 17 17 16 15 14 14 15 15 13 13 13 13 13 11 9 7 6 5 6 9 11 9 7 4 2 2 5 8 10 12 13 13 12 13
30 29 28 27 23 16 11 10 7 5 3 3 3 1 4 6 5 7 9 8 7 7 9 11 12 11 11 13 14 14 14 15 16 16 19 20 19 19 19 18 18 19 18 18 19 21 22 21 20 19 19 18 17 17 16 16 16 16 16 16 14 13 12 12 11 10 9 9 8 7 8 8 6 4 2 2 5 8 11 12 12 12 12 12 13
29 29 28 28 28 24 20 16 13 8 6 5 5 5 7 6 5 5 6 8 9 10 10 12 14 14 14 14 15 17 17 17 16 16 18 19 19 18 17 15 16 19 20 18 19 20 21 20 19 19 19 19 18 18 18 18 18 17 17 18 17 15 14 13 13 12 10 10 8 6 6 5 4 2 1 4 8 10 11 12 12 11 11 12 13
28 27 26 24 24 24 24 23 21 19 15 12 8 4 1 3 4 5 5 6 7 9 10 11 13 15 17 17 18 20 21 21 21 20 20 20 20 20 18 15 13 16 19 20 19 18 19 21 22 21 21 20 19 19 19 20 20 18 18 19 18 16 15 13 12 11 10 10 9 7 6 5 3 1 3 6 9 10 10 10 10 10 11 12 13
26 26 25 22 21 22 22 21 20 20 19 19 18 16 13 9 5 4 6 6 7 8 9 10 12 14 15 17 18 20 22 22 23 23 23 24 24 24 23 20 17 16 16 18 20 21 20 21 23 24 24 23 22 22 22 22 21 18 18 19 19 17 15 12 11 10 9 9 9 8 7 5 2 2 5 8 9 9 9 8 7 8 11 13 13
23 22 22 20 18 18 18 19 19 19 18 18 18 17 16 14 13 11 9 8 8 9 10 12 13 13 14 16 17 19 21 22 23 23 24 24 26 26 27 26 23 19 16 16 19 20 21 21 22 23 23 24 24 25 25 23 21 18 18 17 16 15 13 12 10 10 9 9 9 7 6 3 2 4 6 8 8 8 7 7 7 9 12 12 10
18 17 18 17 16 15 15 16 17 18 17 17 17 17 16 15 14 14 13 13 12 11 12 13 15 15 16 18 18 19 20 20 20 22 23 24 26 27 28 28 25 21 18 18 18 19 20 22 23 22 22 23 26 26 24 23 21 18 16 16 16 15 14 13 12 12 11 9 7 5 3 2 4 5 6 7 7 7 7 7 7 9 11 10 9
16 16 15 15 15 14 15 15 17 18 19 19 18 18 17 17 16 16 16 16 15 15 16 15 15 17 18 20 21 21 20 19 19 21 22 23 25 27 28 29 27 23 20 20 19 18 18 21 23 23 24 26 27 25 22 22 20 17 17 18 18 17 14 12 12 12 11 8 6 4 1 3 5 6 6 6 7 6 6 6 6 6 6 7 9
14 14 15 15 16 16 17 17 18 19 20 20 20 19 19 19 19 20 19 20 20 20 20 19 19 19 19 20 22 24 23 22 20 21 22 23 25 27 28 28 29 28 24 22 21 21 22 22 23 24 26 28 27 23 20 19 17 16 18 19 17 15 13 12 11 11 9 7 4 1 3 4 5 6 6 6 6 7 6 5 4 4 4 6 10
13 14 15 16 17 18 18 18 19 20 21 21 21 21 20 20 20 21 22 22 23 23 23 23 23 23 21 20 20 22 25 25 23 21 22 23 25 27 27 28 29 29 26 25 25 25 24 23 23 25 28 29 26 23 20 19 17 17 18 17 15 15 14 13 12 11 8 5 3 4 4 5 5 5 4 4 3 3 2 2 3 6 7 10 12
11 13 14 15 16 17 18 18 19 20 20 21 22 23 22 22 21 21 22 23 24 25 25 25 26 26 26 24 23 23 24 25 24 22 22 23 25 26 28 28 28 27 26 26 26 26 26 26 25 26 27 27 24 22 21 21 20 19 19 18 16 15 14 14 13 11 8 5 5 5 4 4 4 4 4 4 3 2 2 3 6 8 9 10 10
11 12 13 14 15 16 17 18 19 20 20 20 21 22 23 23 23 23 23 23 24 24 25 25 25 26 26 26 26 26 24 25 25 23 22 23 25 26 27 27 26 25 26 26 26 26 26 24 22 21 22 22 22 22 22 22 20 18 18 18 17 15 15 15 13 10 7 5 5 3 2 2 3 5 6 7 6 5 6 7 7 7 7 7 7
12 13 14 15 15 17 18 19 19 20 21 21 22 23 23 24 24 24 24 25 25 25 25 24 23 24 25 26 27 26 24 25 25 24 23 24 26 27 25 24 24 24 24 25 26 27 24 20 18 19 21 22 22 22 22 21 20 19 20 19 17 16 15 13 10 8 7 6 4 3 4 5 5 6 6 6 6 6 6 6 6 5 4 4 5
14 15 15 16 17 18 19 20 20 21 22 23 23 24 24 24 25 25 25 25 25 25 25 24 21 20 21 23 25 24 24 24 24 25 24 24 26 27 24 21 23 25 22 21 23 25 22 19 21 23 24 23 23 23 23 22 23 22 20 18 16 14 12 10 9 9 8 7 6 7 8 7 6 5 4 4 5 5 5 5 5 5 5 6 8
17 17 17 16 17 18 19 19 20 20 21 21 21 22 23 24 25 25 25 25 25 25 24 23 22 22 22 23 26 26 23 25 24 23 24 25 25 26 24 21 21 22 20 19 20 20 20 22 26 26 26 26 27 26 25 23 21 19 16 15 14 13 13 12 11 10 9 9 9 9 8 6 4 3 4 5 5 5 5 5 6 7 9 11 13
18 18 18 17 17 17 18 19 19 19 20 20 21 22 23 24 24 24 24 25 25 25 25 26 25 24 23 23 26 27 20 23 26 24 24 25 25 23 21 20 19 21 21 20 20 23 24 26 28 28 27 27 25 24 22 20 18 17 15 14 14 14 13 12 11 10 9 8 8 7 5 3 1 3 4 5 5 5 6 7 9 11 12 13 14
17 17 16 15 16 16 16 18 19 21 22 21 21 22 23 23 24 24 23 23 24 25 26 26 26 25 24 24 24 24 21 18 22 24 26 25 24 22 19 18 18 23 25 22 22 27 30 30 30 29 28 27 24 22 20 18 17 16 15 14 13 12 11 10 9 8 7 7 6 4 2 1 3 4 4 5 5 5 7 10 10 11 11 13 14
15 15 14 14 14 15 17 20 22 23 23 23 22 22 21 22 23 25 24 22 22 24 25 26 27 27 26 24 22 22 23 21 19 20 22 22 21 21 19 17 18 23 28 28 29 31 33 33 32 30 28 27 25 22 21 19 18 16 14 13 13 11 9 8 8 8 8 6 4 2 1 3 4 3 3 4 5 6 9 10 9 9 10 12 13
13 12 13 13 14 15 18 20 20 20 21 22 23 23 23 23 23 24 24 23 22 23 24 24 26 26 26 25 22 20 22 22 20 19 20 20 19 18 18 18 19 23 28 31 33 34 34 34 33 31 28 27 25 22 21 21 20 17 15 14 12 10 10 10 9 9 8 5 3 1 2 3 4 3 3 3 4 6 7 7 7 8 10 12 13
12 12 12 13 14 16 17 17 17 19 21 22 22 23 24 24 24 23 22 22 23 25 25 23 22 23 24 25 23 21 22 22 20 18 19 20 19 18 19 20 20 24 30 32 33 33 33 32 31 30 27 25 24 23 23 22 21 19 17 15 13 12 13 12 10 9 7 4 3 2 2 3 2 1 1 2 4 5 5 6 7 9 11 11 11
12 13 14 15 16 16 17 17 18 20 22 22 21 21 22 23 24 24 24 23 23 24 24 23 22 21 22 23 22 21 22 23 20 18 18 21 22 21 21 21 22 26 33 36 35 33 32 32 32 29 26 25 23 23 23 22 21 20 17 16 15 15 13 12 10 7 4 3 2 1 1 1 0 1 2 3 4 5 5 7 9 10 9 9 8
12 13 14 15 17 17 18 19 19 20 21 21 20 20 20 20 20 22 25 26 26 25 24 23 22 21 21 21 21 19 21 23 20 17 17 21 23 21 20 21 25 30 32 31 30 29 28 31 32 28 25 25 24 23 23 23 21 19 16 15 15 14 12 10 9 6 4 3 2 2 1 1 2 4 5 5 5 5 5 7 7 7 7 6 8
10 11 11 13 16 16 17 18 19 19 20 20 19 19 19 19 18 19 22 24 27 28 28 25 23 22 22 22 22 19 18 21 18 14 14 19 21 21 20 22 29 32 27 25 27 27 26 29 31 28 26 26 24 23 24 23 20 17 15 14 15 15 13 11 10 8 7 5 4 3 3 2 5 6 6 5 4 4 3 2 3 4 5 7 9
9 10 10 12 14 15 16 16 17 18 18 18 18 17 17 19 21 21 20 19 21 24 27 28 26 24 23 23 24 21 15 16 17 13 13 17 20 21 22 24 26 25 21 23 28 27 24 25 26 26 26 25 23 23 24 23 20 18 16 17 19 18 15 13 12 11 8 5 4 4 2 2 3 3 4 3 2 1 1 3 3 5 7 8 10
10 11 11 12 13 14 14 14 15 16 16 15 16 16 18 20 21 21 19 18 18 20 24 27 28 26 24 22 22 23 18 14 18 16 14 17 22 24 27 30 30 27 25 26 27 27 25 24 23 23 23 22 22 23 24 22 20 19 18 20 22 19 16 15 12 9 6 6 5 4 1 1 2 2 0 1 2 3 4 4 6 7 8 9 10
9 11 11 12 13 13 14 15 16 16 15 15 15 15 17 19 19 19 19 19 19 20 22 25 26 25 23 20 19 20 19 15 19 20 19 22 27 29 29 30 31 28 24 22 22 24 24 24 22 22 22 23 23 23 23 21 20 18 19 21 21 18 15 13 9 7 7 7 5 3 2 2 3 3 3 3 3 4 5 6 7 7 8 9 11
10 11 12 13 13 13 14 16 18 17 16 16 16 16 17 18 19 20 21 21 21 22 22 23 23 24 23 21 18 16 14 11 14 19 23 27 28 25 23 23 23 20 16 14 17 21 21 19 18 20 22 24 25 24 22 20 19 19 19 19 18 15 13 10 9 10 10 7 5 3 1 1 3 4 2 1 3 5 5 5 6 6 9 11 12
10 12 13 13 14 15 15 17 18 18 18 19 19 19 20 20 21 21 21 21 21 21 20 21 23 23 22 19 14 11 9 7 9 14 21 26 23 18 16 18 19 17 15 14 16 17 17 16 19 23 25 26 25 23 22 21 20 19 18 16 14 12 10 10 11 12 10 7 5 2 2 2 2 3 1 1 2 3 4 5 5 6 9 11 12
10 11 12 14 15 15 15 15 15 16 17 18 19 19 20 20 20 20 20 19 19 19 19 20 21 19 15 10 8 9 8 9 10 10 14 19 18 14 13 15 16 17 17 16 14 12 12 17 23 26 26 25 25 23 22 21 19 17 15 13 12 12 11 12 13 12 10 7 4 0 1 3 2 2 1 3 3 2 3 4 5 7 9 10 11
10 10 11 14 15 14 14 14 15 15 16 17 18 17 17 16 16 16 15 15 15 15 15 14 12 10 8 5 4 5 6 9 11 9 8 11 12 11 11 12 13 16 18 17 14 11 12 20 26 28 26 26 25 24 23 21 18 16 15 15 16 17 16 16 14 12 9 6 3 3 4 5 3 3 3 4 3 4 5 5 7 8 8 8 9
9 10 11 12 13 13 15 17 17 17 19 20 18 16 14 13 13 13 11 8 6 6 6 5 5 5 5 3 0 3 4 6 7 7 7 8 9 9 10 10 10 13 17 17 14 13 16 22 28 29 29 28 26 24 22 21 19 18 18 19 19 19 18 16 14 11 7 5 4 5 5 4 3 3 3 3 3 4 5 7 8 6 7 8 9
9 10 10 11 12 14 16 18 18 19 20 21 19 16 14 11 11 13 12 9 7 5 5 7 8 8 8 6 4 5 6 6 7 9 10 10 10 10 11 12 13 14 15 16 17 19 22 26 29 30 28 26 24 22 21 20 19 19 19 19 17 16 15 13 10 8 6 5 6 6 5 4 4 4 3 3 2 2 6 8 6 5 7 10 11
10 10 10 9 11 13 15 17 18 18 19 20 20 19 17 14 12 13 13 12 10 9 7 8 10 11 11 9 8 10 13 13 14 15 16 16 17 17 16 16 16 16 18 22 25 27 28 30 30 29 27 25 24 22 21 19 18 17 16 14 12 11 10 8 7 7 7 6 6 6 5 5 5 5 4 2 1 4 6 5 4 4 7 10 12
11 12 11 9 10 12 14 16 16 16 18 19 20 19 19 18 16 15 15 15 15 13 9 8 9 10 11 12 14 16 18 18 19 20 20 21 22 21 20 20 21 23 27 30 31 31 31 31 30 29 27 24 23 21 20 18 16 13 11 9 8 8 7 6 7 8 8 7 6 5 5 6 7 6 5 2 2 5 4 3 3 6 9 10 11
11 14 13 11 10 11 13 14 15 15 16 18 19 19 19 18 18 18 18 18 18 17 14 12 12 12 13 16 18 19 20 21 21 22 22 22 22 22 23 25 27 28 29 30 30 30 30 29 28 27 26 23 21 19 17 15 13 11 9 8 8 7 7 6 6 7 8 7 6 4 4 6 8 7 4 2 2 3 3 3 6 10 11 10 8
13 15 13 11 11 11 11 12 13 13 13 15 17 18 18 17 17 18 18 18 18 18 17 16 15 16 17 19 20 21 23 24 24 23 23 23 22 22 23 25 25 24 23 23 24 24 24 24 23 22 21 19 18 17 16 14 13 11 10 9 9 8 7 6 6 7 7 7 5 4 5 8 9 7 4 3 1 3 5 6 8 11 10 7 6
12 14 13 11 12 12 12 12 12 11 11 13 15 17 16 15 15 15 16 18 19 18 18 17 17 18 20 21 22 23 25 26 26 26 26 25 24 23 23 23 23 23 22 21 21 20 19 18 18 17 16 15 14 14 14 13 12 11 9 8 8 7 7 6 6 7 7 6 5 4 6 9 8 6 4 3 2 6 7 8 9 9 7 7 7
11 13 13 12 12 13 13 13 12 11 11 12 15 16 16 15 13 12 14 17 19 19 19 19 19 19 20 21 22 22 24 26 27 27 27 27 27 26 25 24 24 24 24 23 22 20 19 17 16 15 15 14 13 13 12 12 10 9 8 7 6 6 6 6 5 6 7 6 5 5 7 8 7 5 4 3 5 6 7 9 10 8 8 8 8
9 11 12 11 11 12 14 15 15 14 12 12 15 16 16 16 15 14 14 16 18 19 20 21 21 20 20 20 21 21 23 25 25 26 26 25 25 25 24 24 24 23 23 23 22 20 19 18 17 16 15 14 12 11 10 9 8 7 6 6 6 6 6 6 6 6 7 6 6 6 7 8 6 4 4 5 5 5 6 8 8 7 8 8 8
8 10 11 11 11 11 12 13 15 15 14 13 13 14 15 16 16 16 17 18 18 19 20 21 22 21 21 21 21 22 23 24 23 23 22 21 21 21 21 21 21 21 20 20 19 18 17 17 16 15 14 13 11 10 9 7 6 6 5 6 6 6 6 6 6 7 7 7 7 7 7 6 5 4 5 5 5 4 5 6 6 6 7 8 8
Wind_Direction
182 186 188 190 183 175 172 170 170 171 171 171 174 174 171 169 165 159 156 156 154 151 149 149 148 148 149 148 147 146 142 143 147 147 146 148 152 154 151 145 135 126 125 128 129 130 124 118 116 114 115 113 110 109 104 104 108 102 104 129 141 147 148 135 128 130 139 147 152 155 165 175 182 187 138 50 52 64 19 318 302 313 317 320 360
176 184 190 193 186 177 171 165 166 170 169 170 176 177 174 170 165 160 159 157 155 154 152 152 155 154 150 148 148 149 148 148 151 152 153 156 160 158 154 149 144 138 136 135 133 132 129 125 121 117 118 117 115 117 116 116 118 115 114 125 137 148 155 147 141 139 146 157 156 153 164 181 191 197 210 303 89 88 54 323 300 321 336 352 15
174 184 192 191 186 181 176 169 170 173 171 172 179 178 173 170 166 164 163 158 158 162 159 157 162 162 156 153 152 153 153 153 153 153 155 162 167 165 162 161 157 148 144 144 141 137 133 128 124 122 119 115 115 120 126 126 126 123 117 120 132 146 157 153 149 151 157 162 162 161 167 179 192 201 210 213 187 125 70 89 113 90 68 48 37
180 195 198 191 187 187 182 174 173 177 176 176 177 176 173 170 166 167 168 163 164 169 164 162 172 170 160 157 156 156 155 155 155 155 154 157 160 161 160 156 154 148 145 147 150 148 142 135 132 131 124 118 115 119 126 129 132 131 125 122 127 137 154 158 154 159 165 166 169 177 177 175 188 207 206 196 186 151 118 129 130 105 66 41 28
184 197 210 200 193 190 183 175 172 176 181 182 176 173 172 169 168 171 171 168 170 171 164 166 177 174 166 162 161 160 160 159 160 160 156 149 154 160 158 153 154 154 152 151 153 156 154 148 146 145 140 131 125 124 128 133 142 141 133 133 133 133 142 152 157 168 172 173 178 188 192 185 191 211 210 199 163 140 142 137 138 360 343 340 338
183 192 211 213 196 190 181 170 165 172 182 183 174 172 172 169 171 175 172 170 174 171 167 170 177 174 171 170 167 164 165 165 163 165 163 155 158 163 161 158 161 164 162 159 157 160 161 162 164 164 157 146 140 140 134 129 136 143 143 144 144 139 139 141 146 157 167 175 184 194 196 192 194 190 195 195 166 150 152 125 11 322 326 328 328
187 188 201 202 179 178 182 174 169 171 177 173 164 167 174 174 175 177 175 176 178 172 169 174 180 179 178 178 176 171 170 172 170 170 172 167 165 168 168 167 166 164 164 162 161 161 165 172 175 173 167 159 158 161 154 138 130 137 149 154 155 155 153 148 143 146 158 169 184 199 197 189 188 158 152 168 168 161 188 298 17 332 330 337 339
165 166 174 176 167 175 186 181 177 180 186 175 166 165 170 173 176 180 182 185 186 177 174 179 185 186 186 186 185 179 176 181 183 179 177 176 175 175 178 178 170 164 163 161 162 165 173 181 179 173 172 174 178 179 175 165 149 141 148 157 164 162 154 156 164 164 173 158 142 204 203 199 201 168 143 157 155 125 87 94 39 345 333 339 348
141 144 145 145 152 172 184 177 172 183 191 179 175 179 180 175 176 181 187 190 193 192 188 190 193 194 197 199 195 191 188 188 191 189 185 185 185 184 187 187 181 178 176 172 170 172 178 183 181 178 182 187 190 191 188 186 180 169 162 161 167 167 159 160 162 157 169 116 68 78 166 189 201 166 127 125 119 97 73 38 359 344 333 333 345
116 123 137 139 147 168 180 172 170 179 177 165 172 190 199 194 188 189 192 189 191 196 198 199 203 206 213 220 206 198 197 195 196 199 198 197 195 195 197 196 191 191 189 184 183 183 183 185 184 185 191 195 198 201 200 200 201 199 196 186 183 186 183 178 172 166 166 140 86 85 114 131 151 147 125 112 103 83 24 5 354 347 339 333 336
109 125 140 136 134 145 141 131 150 169 174 181 191 196 208 211 203 204 208 196 186 189 194 201 208 211 217 226 219 202 199 199 200 202 204 205 205 204 205 203 200 201 199 193 190 189 191 195 194 191 194 197 200 203 204 207 208 206 206 201 195 196 198 194 188 184 179 152 126 140 141 137 139 147 143 127 89 23 10 6 357 351 350 344 333
78 80 83 82 91 112 110 97 101 98 91 140 165 183 223 230 217 214 221 219 202 197 201 208 215 217 217 223 225 214 205 204 204 205 206 207 209 210 210 210 208 207 206 202 196 193 195 198 197 193 193 195 199 203 207 211 212 210 208 206 200 198 200 201 197 195 199 191 161 147 152 150 145 145 144 119 26 1 356 354 352 350 348 342 328
62 57 55 54 58 72 93 104 114 124 118 107 100 140 241 244 234 231 237 241 240 231 222 221 226 232 233 231 230 230 225 216 210 209 209 208 209 208 209 211 212 210 207 203 199 198 197 196 195 197 200 200 203 210 217 221 219 215 215 215 210 203 200 202 203 203 204 199 180 156 155 160 155 141 99 17 346 344 345 344 345 343 338 334 329
54 51 50 46 44 45 50 55 59 68 96 128 148 184 214 230 242 247 250 254 257 257 249 239 238 243 248 249 244 242 243 238 230 222 216 213 213 211 209 210 211 209 208 205 201 198 199 201 205 208 209 210 213 216 223 228 226 222 221 221 217 212 209 208 208 209 208 205 200 179 165 172 177 163 16 341 332 337 341 340 339 337 334 334 330
42 40 41 39 35 33 33 33 33 32 34 36 38 42 220 239 246 249 260 271 270 268 264 257 252 251 253 254 252 249 248 248 246 242 236 231 228 224 220 219 221 219 214 211 208 206 208 215 221 223 221 223 228 230 232 233 231 228 224 222 219 216 215 216 217 219 221 222 223 209 184 175 179 195 317 328 334 340 341 338 337 335 337 339 338
35 32 31 28 25 24 22 20 19 18 15 12 13 15 13 9 2 316 285 281 277 273 268 262 259 259 257 257 257 255 253 252 253 253 251 246 241 237 233 232 234 233 221 216 218 217 214 219 227 230 231 233 235 236 237 236 233 229 223 218 217 216 217 219 220 221 221 217 210 201 191 187 202 281 321 331 339 343 343 343 343 348 355 355 353
31 29 27 22 17 15 13 10 7 5 2 359 357 357 356 358 2 0 344 324 306 291 280 271 266 266 264 262 262 262 261 258 257 257 257 253 247 244 243 241 241 236 229 228 230 227 227 233 234 233 235 238 238 234 234 233 228 223 218 213 211 212 207 202 196 192 192 190 186 188 196 215 286 325 339 347 353 357 358 2 5 9 12 7 357
21 19 18 16 11 7 3 359 357 357 356 353 348 345 343 340 340 342 341 338 329 317 304 288 272 265 266 265 263 264 264 264 262 259 259 257 252 247 246 246 244 237 230 235 237 235 235 235 231 232 235 237 237 235 231 226 221 217 214 206 201 199 191 184 184 182 181 184 186 193 213 277 333 353 6 11 13 11 6 8 13 15 15 8 352
8 4 1 360 360 357 353 350 349 350 349 346 343 338 334 330 325 323 323 322 320 316 312 302 284 270 264 263 262 262 261 262 264 263 262 261 257 253 249 247 246 242 234 232 231 230 230 227 230 236 234 230 234 235 227 219 217 216 210 200 194 193 188 184 188 188 185 188 190 189 242 359 12 23 25 15 4 355 350 356 1 1 7 4 355
358 356 352 350 349 347 346 344 342 341 341 340 339 336 331 327 324 320 317 313 310 307 303 300 296 288 276 266 261 258 255 255 258 262 264 263 261 259 254 248 245 242 237 231 227 227 228 228 231 232 224 223 232 231 218 213 214 210 205 200 197 196 191 187 193 193 188 184 175 109 38 32 31 27 11 350 339 338 339 340 329 317 329 342 344
8 4 357 355 353 350 349 346 341 338 335 332 331 331 330 330 327 324 319 312 307 303 299 297 296 294 291 284 272 260 254 251 252 256 259 260 261 261 257 253 248 242 237 234 230 227 226 226 226 221 216 219 226 220 206 201 201 199 200 203 205 200 189 181 182 181 173 160 118 76 64 50 32 23 9 347 338 341 338 319 312 317 323 329 330
9 4 358 358 357 353 350 347 343 340 337 334 331 328 327 326 325 325 323 318 310 303 299 298 297 295 294 292 284 272 257 247 246 251 254 255 259 259 258 257 253 244 235 230 226 223 223 221 218 212 208 210 212 205 195 193 194 196 198 200 200 194 181 170 166 163 155 131 105 99 85 47 28 46 62 67 77 70 23 358 343 335 331 331 335
359 355 352 351 350 348 346 345 344 344 342 339 335 332 329 326 324 322 322 323 320 313 305 301 298 296 294 291 288 280 263 246 241 244 250 253 256 257 257 256 250 241 233 229 226 221 217 210 202 197 197 198 195 191 192 195 193 189 187 186 181 170 161 156 155 153 148 136 128 112 75 55 70 79 70 63 61 43 19 10 1 354 346 341 344
360 356 353 349 345 343 340 337 338 339 339 337 334 332 330 327 324 323 321 320 321 320 317 311 302 296 295 292 288 279 263 246 238 239 246 252 252 254 257 251 240 235 234 231 223 213 201 194 197 198 194 192 189 187 188 187 175 164 161 161 156 152 152 152 150 148 145 144 143 113 95 105 107 92 69 50 38 25 17 14 5 357 350 341 340
5 1 358 353 347 343 338 333 333 332 330 330 331 332 330 326 324 326 325 322 319 318 320 319 315 314 314 310 303 289 264 244 235 234 238 244 247 251 256 249 236 232 228 215 205 199 195 198 203 197 186 181 177 172 168 163 156 152 150 147 145 146 147 144 143 142 135 131 127 116 109 109 101 80 49 14 359 354 354 350 337 327 321 316 314
359 356 353 348 344 342 338 333 331 329 327 328 328 329 329 327 327 329 330 329 326 323 324 326 328 330 331 329 327 313 276 243 233 232 232 235 242 249 254 249 235 225 219 208 200 201 206 204 194 181 171 169 168 162 156 152 148 147 144 142 144 145 143 142 143 140 132 125 125 122 115 110 97 52 6 347 347 351 352 343 334 332 330 324 320
352 348 346 344 342 339 335 333 332 330 329 328 325 323 323 324 325 327 328 329 329 328 329 329 327 326 324 323 326 323 290 243 230 229 228 231 240 247 252 251 232 209 207 215 211 202 197 190 181 171 165 163 160 156 151 145 141 140 140 142 145 144 141 142 143 143 139 132 131 131 126 118 43 356 355 350 349 354 350 341 338 339 339 338 338
348 343 340 338 336 335 334 334 333 331 329 327 323 319 318 318 319 321 323 325 325 326 327 326 322 319 316 313 315 316 303 270 244 233 226 228 237 242 245 248 231 206 201 204 197 186 180 175 170 165 160 155 151 148 144 139 137 139 141 142 142 142 141 142 145 148 150 146 142 142 132 342 336 349 355 347 345 348 342 339 342 344 344 345 346
341 338 335 332 332 332 332 331 329 327 325 323 320 316 313 313 314 314 316 320 321 322 325 328 327 324 318 312 306 299 296 294 282 260 243 237 240 241 236 232 225 211 203 196 185 174 169 166 164 160 155 151 147 143 140 136 135 136 138 137 136 138 142 145 145 146 152 155 152 142 352 350 1 360 340 333 343 348 340 338 342 344 344 344 342
332 330 329 326 324 324 325 324 322 320 317 316 316 315 312 310 308 308 312 315 315 317 323 329 332 332 326 318 306 289 284 289 290 278 262 250 244 239 228 219 211 201 194 189 180 171 166 164 162 158 153 150 147 143 141 139 135 134 138 141 142 141 139 139 141 145 150 152 136 85 18 15 19 359 320 322 340 344 341 341 343 346 346 340 330
329 324 321 318 316 318 318 315 311 310 310 311 313 313 313 312 310 307 308 309 307 309 315 322 327 332 331 324 310 289 279 279 279 269 254 243 238 230 217 210 204 193 186 179 171 167 167 162 155 152 151 149 147 144 144 143 139 138 139 141 145 148 143 140 143 149 148 136 109 78 28 12 8 326 300 335 344 343 348 350 348 347 341 329 318
326 322 321 320 319 318 315 310 307 305 305 306 308 310 312 312 312 311 311 310 308 308 310 315 321 329 335 332 318 294 275 270 270 265 249 234 228 222 215 212 205 190 179 172 169 171 170 159 150 149 149 146 145 147 149 148 149 151 149 143 143 148 148 145 149 154 144 118 106 88 356 331 245 260 308 318 316 319 333 342 343 338 327 316 314
317 317 320 322 322 321 317 313 310 307 304 302 304 308 309 307 307 312 315 314 313 311 308 311 319 324 329 333 327 304 275 264 266 267 249 231 220 214 212 208 192 176 167 166 172 176 168 153 148 149 150 149 149 152 153 155 159 162 163 158 155 156 156 154 157 157 138 129 148 173 189 220 281 305 303 294 290 301 323 338 337 328 320 324 330
316 316 320 323 323 324 323 319 315 312 307 301 296 297 301 303 304 310 314 314 315 315 313 315 319 318 319 327 332 319 282 259 256 253 233 219 211 204 199 190 177 171 170 174 175 171 161 153 151 153 155 156 157 158 161 164 165 164 164 165 164 160 156 155 155 148 146 161 184 184 186 250 294 295 279 267 278 299 316 346 348 334 339 347 342
330 327 327 328 327 327 328 327 325 321 315 306 299 296 300 303 303 304 305 306 310 312 313 314 314 311 311 318 327 326 298 254 240 235 219 208 202 193 181 169 163 168 182 186 177 168 162 159 158 156 155 156 161 166 168 167 166 163 163 164 161 155 151 151 149 146 150 162 164 158 178 297 311 284 260 270 300 329 76 79 40 7 359 355 343
335 331 329 329 330 334 339 337 333 330 328 321 310 304 304 303 300 299 298 298 300 303 307 309 309 308 307 309 316 322 311 261 231 230 225 208 196 185 173 167 170 181 197 197 183 170 166 164 161 158 158 159 162 164 162 158 155 153 154 156 154 149 146 146 145 141 136 132 129 130 112 31 61 80 61 71 95 94 75 39 14 6 2 350 336
340 337 337 336 336 343 347 339 327 324 328 327 317 307 303 301 297 295 294 293 295 298 300 304 308 308 309 311 315 318 310 271 230 220 211 194 185 181 176 173 177 185 195 195 179 164 160 161 162 164 163 160 157 155 152 151 150 146 145 148 149 147 145 143 136 126 125 130 131 123 111 96 60 38 46 93 92 56 23 9 6 3 354 340 331
347 345 347 344 340 339 339 333 325 321 322 324 320 313 308 304 300 298 294 292 294 295 295 299 304 305 308 314 315 307 295 265 222 202 188 178 178 180 179 174 170 168 167 166 158 150 147 152 165 170 164 154 150 149 147 149 151 148 144 142 142 140 138 133 127 125 127 131 134 128 106 351 13 32 36 49 41 28 18 14 12 354 336 331 333
350 354 357 351 344 339 333 330 328 323 320 320 319 316 311 307 303 299 295 292 292 293 293 296 300 303 308 311 304 286 267 231 199 186 176 173 176 181 176 170 167 160 149 141 142 145 148 154 163 166 160 151 147 146 145 145 148 147 143 140 137 135 136 139 140 139 137 140 148 157 320 337 62 64 13 344 55 46 31 25 14 344 329 334 341
350 356 360 356 352 349 346 343 341 336 330 328 326 321 317 315 312 307 301 295 293 294 297 300 303 307 314 312 292 275 252 216 205 195 174 167 170 173 171 170 171 166 157 149 145 148 160 163 161 159 157 152 149 147 145 145 143 140 141 145 143 138 141 148 147 144 145 151 154 60 43 104 92 29 59 127 120 84 45 28 356 329 330 339 341
1 1 1 360 359 0 0 358 355 351 346 343 339 334 333 334 333 327 317 308 303 302 303 307 312 321 332 330 295 270 242 216 212 211 189 173 172 173 172 174 176 173 172 169 159 149 157 163 161 158 154 150 145 143 141 141 139 136 139 144 141 135 136 141 142 143 148 149 129 94 108 106 59 39 98 119 102 69 51 8 326 319 333 344 342
14 8 2 0 2 7 7 4 1 359 357 358 358 357 355 355 356 356 354 346 335 326 326 343 5 14 16 17 237 215 215 211 210 205 191 178 167 158 156 161 166 168 172 172 164 155 155 156 153 150 147 143 140 138 137 138 139 138 136 137 136 134 134 137 140 146 151 143 124 118 115 99 75 81 91 85 79 71 25 342 331 337 346 348 348
22 15 6 359 359 3 6 7 8 8 7 11 19 27 28 24 20 22 28 33 36 42 55 58 57 60 66 76 110 138 140 149 158 160 159 156 147 142 146 150 151 154 157 156 153 151 149 143 139 137 137 136 138 139 140 141 144 143 140 138 137 138 139 141 146 152 155 150 145 140 133 130 129 109 79 80 103 32 346 345 3 15 355 350 353
28 18 7 360 2 6 9 13 15 14 14 21 32 40 42 42 39 35 37 41 43 47 57 66 65 69 75 85 102 114 118 122 129 131 132 131 128 127 132 137 139 139 138 137 139 140 139 135 131 130 128 129 132 133 135 139 144 147 144 143 142 141 143 147 154 157 156 154 156 161 167 165 149 122 109 133 257 328 349 16 30 358 345 352 355
33 23 16 10 11 13 14 19 22 20 20 27 37 42 43 45 48 47 47 49 50 51 60 72 72 72 81 93 103 109 111 113 116 116 116 117 116 115 117 121 125 126 124 125 128 130 130 128 127 125 123 123 126 127 128 131 135 136 136 139 141 140 140 147 155 156 152 146 147 162 177 175 163 153 146 152 323 344 17 47 358 333 342 352 355
43 35 31 31 30 22 17 21 27 25 24 31 39 43 43 44 48 51 52 52 53 56 66 80 88 90 94 100 104 106 106 106 108 108 108 108 110 109 108 111 116 118 118 118 120 121 122 122 122 122 121 121 121 122 123 125 126 124 122 120 119 117 120 128 142 148 146 142 141 148 162 165 164 160 148 121 62 23 26 4 333 333 342 351 359
53 48 43 44 46 39 29 29 33 32 28 32 41 47 47 43 42 46 51 53 57 61 68 79 90 96 98 101 104 104 102 102 104 107 108 109 112 113 112 112 113 115 117 119 120 119 117 117 119 122 123 123 122 120 119 118 118 118 117 113 109 104 103 111 131 145 149 144 137 135 147 153 150 141 123 118 96 7 358 347 338 339 347 3 21
65 63 60 54 51 46 40 39 41 39 36 39 45 52 55 50 43 43 48 54 60 67 73 82 92 98 99 101 103 103 103 104 105 107 109 110 113 116 117 117 117 117 118 119 120 120 119 120 122 123 126 127 124 120 116 114 115 115 114 116 116 108 100 102 122 141 147 140 127 132 146 148 141 129 123 118 15 357 358 354 353 3 24 41 42
80 78 73 64 57 53 51 52 52 50 51 54 55 60 65 64 57 52 54 60 67 76 83 90 96 99 99 100 102 103 103 105 106 107 109 110 112 115 118 119 121 122 120 119 120 123 125 126 125 124 125 126 123 119 115 113 114 114 113 119 128 125 111 102 111 131 142 136 122 126 138 139 133 123 111 62 11 5 6 3 10 36 60 51 36
93 87 82 76 71 65 60 59 60 59 61 63 63 66 72 74 70 67 67 71 77 84 91 98 105 106 105 107 108 108 107 108 108 109 109 110 111 113 116 120 123 123 122 122 124 127 128 128 127 127 127 127 124 122 121 119 118 116 115 121 133 137 127 107 104 120 136 131 116 117 127 128 120 102 72 39 18 14 17 16 26 52 60 37 23
105 100 96 89 85 79 70 64 63 63 65 68 69 72 77 79 77 76 77 80 85 89 95 101 108 111 110 110 111 111 111 112 111 110 110 109 109 110 113 118 122 123 124 125 128 128 129 131 133 134 134 131 126 124 126 124 119 116 115 119 131 142 137 116 104 113 127 127 119 116 118 114 103 82 55 36 23 17 24 31 40 51 44 28 14
Height
799 801 803 805 807 808 809 811 812 814 816 817 819 820 821 822 823 824 825 826 827 829 830 831 832 834 834 835 836 837 838 839 840 842 843 845 846 846 846 846 845 844 843 842 842 843 844 844 846 847 847 847 848 849 850 851 852 853 854 855 856 858 858 859 862 865 867 867 868 868 869 869 869 870 869 869 869 869 868 868 867 868 868 868 868
797 800 803 805 807 809 811 812 813 815 816 817 819 820 821 822 823 825 826 827 827 828 830 831 833 834 835 836 836 837 838 839 840 841 842 844 845 846 847 847 846 845 844 844 843 843 844 845 846 847 848 848 849 850 851 852 853 854 856 857 858 859 859 860 862 864 866 867 867 868 868 868 868 868 868 868 868 868 867 867 867 867 868 869 868
799 802 804 806 809 810 812 813 814 816 817 818 819 820 822 823 824 825 826 827 827 828 830 831 833 834 835 836 836 837 838 839 839 840 842 843 845 846 847 847 847 846 845 844 844 844 845 845 846 848 848 849 850 851 852 853 854 855 856 857 858 859 860 860 861 863 864 866 867 867 867 867 867 867 867 868 868 867 867 867 867 868 868 868 867
803 804 806 807 809 811 813 814 815 817 818 819 819 820 821 823 824 825 826 827 828 829 830 831 833 834 835 836 836 837 838 839 839 840 841 842 843 845 846 846 847 846 845 845 845 845 846 846 847 848 849 850 851 852 853 854 855 855 857 858 858 859 860 861 861 862 863 865 866 866 866 866 866 866 867 867 867 868 868 867 867 867 867 867 866
803 806 810 811 811 812 813 815 816 818 820 820 820 821 822 823 824 825 826 827 828 829 830 831 833 833 834 835 836 837 837 838 839 840 841 842 843 844 845 845 846 845 845 845 845 846 846 847 847 848 849 849 850 852 853 853 854 855 856 857 858 859 860 861 861 862 863 864 865 865 865 865 865 865 866 866 866 867 867 867 867 867 866 866 866
803 807 812 813 813 814 815 816 818 819 820 821 821 821 822 823 824 825 826 827 828 829 830 831 832 832 833 834 835 836 837 837 838 839 840 841 842 843 844 845 845 844 844 844 844 845 846 846 847 847 848 849 850 851 852 853 854 855 856 857 858 859 860 861 861 861 862 863 863 864 864 864 864 864 865 865 865 866 866 866 866 865 865 865 865
806 808 812 814 814 816 818 819 820 820 820 820 820 821 822 823 824 825 826 827 828 829 829 830 831 831 832 833 834 835 836 837 837 838 839 840 841 843 844 845 845 844 844 844 844 845 845 845 846 847 848 849 849 850 851 852 853 854 855 857 858 858 859 860 860 861 862 862 862 863 862 863 863 863 864 865 865 865 865 865 864 864 864 864 864
810 812 814 815 815 816 818 819 819 820 820 820 820 821 821 822 823 824 826 827 828 828 829 829 830 830 831 832 833 834 835 836 837 837 838 839 841 842 843 844 844 844 844 844 844 845 845 846 846 847 848 848 849 850 850 851 852 853 854 855 856 857 858 859 860 860 861 861 861 861 861 861 862 862 863 863 863 863 864 863 863 863 863 863 862
812 813 815 815 814 817 819 819 819 820 821 819 819 820 821 822 823 824 825 826 827 828 828 829 829 830 830 831 832 832 833 834 835 836 837 838 840 841 842 842 842 843 843 843 844 844 845 845 846 847 848 848 849 850 850 851 851 852 853 854 855 856 857 858 858 859 860 860 860 861 861 861 861 861 862 862 862 862 862 862 862 862 862 861 861
810 812 814 814 814 817 819 818 818 820 819 819 819 820 821 822 823 824 824 825 826 826 827 828 828 829 829 830 831 831 832 833 834 835 836 837 838 839 840 841 841 841 841 842 843 843 844 844 845 846 846 847 848 849 850 851 851 851 852 853 854 854 855 856 856 857 858 858 859 860 860 860 861 861 861 862 862 862 862 862 861 861 860 859 859
809 813 814 814 814 816 817 817 817 818 818 819 820 820 821 822 823 824 824 824 825 825 826 827 827 828 828 829 830 830 831 831 832 833 834 835 836 837 838 839 840 840 841 841 841 842 842 842 843 843 844 845 846 847 848 849 850 851 851 852 852 853 853 854 854 855 856 856 857 858 858 859 860 861 861 861 861 861 861 860 860 859 859 858 858
810 813 814 814 815 816 816 816 816 817 817 818 819 820 822 823 823 823 824 824 825 825 826 826 827 827 828 828 829 829 830 830 830 831 832 833 834 835 836 837 838 839 839 839 840 840 840 840 841 842 843 844 845 846 847 848 849 849 850 850 851 851 852 852 853 853 854 855 855 856 857 858 858 859 860 860 860 859 859 859 859 858 859 859 858
811 813 814 816 817 819 820 820 819 819 819 819 819 820 823 824 824 823 824 824 825 825 826 826 826 827 827 828 829 829 829 829 829 830 831 831 832 833 833 835 835 836 836 836 837 838 838 838 839 840 841 841 842 844 845 846 846 847 848 849 849 850 850 851 851 852 853 854 854 855 855 856 856 857 857 858 858 858 857 857 858 858 858 858 857
812 813 815 816 817 819 821 821 823 823 823 823 823 823 824 824 824 824 824 824 824 825 825 826 826 826 827 827 828 828 828 828 828 829 829 829 830 830 831 832 832 832 832 833 835 836 837 837 837 838 839 839 840 841 842 843 844 845 846 847 848 848 849 849 850 851 851 852 853 854 854 855 855 855 856 856 856 856 856 856 857 857 857 857 857
813 814 815 816 817 818 819 819 821 822 823 824 824 824 824 823 823 822 822 823 823 824 824 825 825 826 826 826 827 827 827 827 827 827 827 828 828 828 828 829 829 829 829 830 831 833 834 834 835 836 836 837 838 839 839 840 842 843 844 845 846 846 847 847 848 849 850 851 852 852 853 854 855 855 855 855 855 855 855 856 856 856 856 856 856
816 816 817 817 818 818 819 820 820 820 821 822 822 822 823 823 822 822 822 822 822 823 823 824 824 824 825 825 825 825 825 825 825 824 824 825 825 825 825 826 827 827 827 827 828 828 830 831 832 833 833 834 836 836 837 838 839 841 842 842 843 844 845 846 847 848 850 850 851 851 852 853 853 854 854 854 854 854 855 855 855 855 855 855 854
819 819 820 820 820 821 821 821 821 821 821 821 821 822 822 821 821 822 822 822 822 822 822 822 823 823 823 823 823 822 822 822 822 822 821 821 821 821 822 823 824 824 824 825 825 826 827 828 828 829 830 831 833 834 834 836 837 838 840 840 841 843 843 844 846 847 849 849 850 851 851 852 852 853 853 853 853 853 854 854 854 854 853 854 854
823 822 823 823 823 823 823 823 823 822 822 822 822 822 821 821 820 820 820 821 821 821 821 821 821 821 821 820 820 820 820 819 819 819 818 818 818 818 819 819 820 821 822 822 822 822 823 824 825 826 827 828 830 831 832 833 835 836 837 838 840 842 842 843 844 846 847 848 849 850 850 851 851 851 851 852 852 852 852 852 852 852 853 854 854
826 825 825 825 824 824 823 823 823 822 822 822 822 822 821 820 820 819 819 819 819 819 820 820 820 820 819 818 817 817 817 817 817 816 815 815 815 815 815 816 816 817 818 819 819 819 820 821 822 823 825 826 828 828 829 830 832 833 835 836 837 839 840 841 843 844 846 847 848 849 849 850 850 850 851 851 851 851 852 852 852 852 853 854 854
827 826 826 825 824 824 823 822 822 821 821 821 821 821 821 820 819 819 818 818 818 818 818 818 818 818 817 817 815 815 814 814 814 814 813 812 812 811 811 811 811 812 814 815 816 816 817 818 819 820 822 824 825 826 828 828 830 832 833 833 835 836 838 840 842 843 845 846 847 848 848 848 849 849 850 850 851 851 851 851 851 852 853 853 853
828 827 826 825 824 824 823 823 822 821 821 820 820 820 819 819 819 818 818 818 817 817 817 816 815 815 814 814 813 812 811 811 811 811 810 810 809 808 808 807 807 809 810 811 812 813 814 815 816 817 819 820 821 823 825 826 828 830 831 832 833 835 837 839 841 842 844 845 846 846 847 847 848 849 849 850 850 850 850 851 851 851 852 852 852
828 828 827 826 825 825 824 824 823 822 821 820 819 819 818 818 818 818 817 817 816 816 815 814 813 812 811 811 810 809 808 808 808 808 808 807 807 806 805 805 805 806 807 808 809 809 810 812 812 813 815 817 819 821 823 825 827 828 829 831 833 834 836 838 840 842 843 844 845 845 846 847 848 848 848 849 849 850 850 850 851 851 852 852 852
828 827 826 826 825 825 824 824 823 822 821 820 820 819 818 818 818 818 817 816 815 814 813 813 812 810 809 808 807 806 805 805 804 804 804 804 804 804 803 803 804 804 804 805 806 807 808 810 811 812 813 815 818 820 823 825 826 827 828 830 832 834 835 837 839 841 842 843 844 846 847 847 847 847 848 849 849 850 850 850 850 851 851 851 851
827 826 825 825 824 824 824 823 822 822 821 820 819 818 818 818 817 817 816 815 814 813 812 811 810 808 807 805 804 802 802 801 801 801 801 801 801 801 801 802 803 803 802 803 803 805 807 810 813 813 813 814 817 820 823 824 825 826 828 830 832 833 835 837 839 840 842 843 845 846 847 847 847 848 848 849 849 849 849 849 850 850 850 850 850
826 826 825 825 824 824 823 822 822 821 820 820 819 818 818 817 816 815 814 813 812 811 810 810 808 807 805 803 801 800 798 798 798 798 798 798 798 798 799 799 800 801 801 801 802 804 805 809 812 812 812 813 816 819 821 823 824 826 828 830 832 833 835 836 838 840 842 843 844 846 846 847 847 848 848 848 848 848 848 849 849 849 849 849 849
826 826 826 825 825 824 824 823 822 822 821 820 820 819 818 817 815 814 813 812 811 810 809 808 807 805 804 802 800 798 796 794 794 795 795 795 795 796 796 796 797 799 801 802 803 804 806 808 810 811 811 813 815 817 820 822 824 826 828 829 831 833 835 836 838 840 842 843 844 845 846 847 847 847 847 847 847 847 848 848 848 849 848 848 847
827 827 827 826 825 825 825 824 823 822 822 821 820 819 818 817 816 815 814 812 811 810 808 807 805 804 803 801 799 797 795 793 792 791 792 793 793 793 793 794 795 797 799 801 802 802 805 809 811 810 810 813 815 816 818 821 823 825 827 829 831 833 834 836 838 840 842 843 844 845 846 846 846 847 847 847 847 847 848 848 848 848 848 847 846
829 828 828 827 827 826 826 825 824 823 822 821 820 819 818 817 816 815 814 813 811 810 808 806 805 803 802 800 798 796 795 794 791 789 789 789 789 790 791 791 793 795 796 799 801 801 803 808 811 809 808 811 814 816 818 820 822 824 826 828 830 832 834 836 838 840 841 842 844 845 845 846 846 846 847 847 847 847 848 848 848 848 847 846 846
829 829 829 828 827 827 826 825 824 823 821 820 819 818 817 816 815 813 812 812 811 810 808 806 804 802 800 798 797 795 793 793 792 791 789 787 787 787 788 789 790 792 792 795 798 801 803 806 808 808 807 808 811 814 816 819 821 823 825 827 829 832 834 836 838 839 841 842 843 844 845 845 846 847 847 847 848 848 848 848 848 847 847 846 846
830 829 829 828 828 827 826 825 824 823 821 819 818 816 815 814 813 811 810 809 808 808 806 804 802 800 797 795 794 793 791 790 790 790 789 788 787 786 786 786 788 790 792 792 794 799 803 805 804 804 804 807 809 812 815 817 819 822 825 827 829 831 833 835 837 839 841 842 843 844 844 845 846 846 847 848 848 848 848 848 847 847 846 846 846
829 829 828 828 827 826 825 824 823 821 820 818 817 814 812 811 810 809 808 807 806 804 803 802 800 798 796 793 791 790 790 789 788 787 787 787 786 785 785 785 786 788 791 793 796 800 803 802 801 801 803 806 808 811 814 816 819 822 824 827 829 831 832 835 837 839 840 841 842 843 844 845 846 847 847 848 848 848 848 847 847 846 846 846 846
829 828 827 827 826 825 824 822 821 820 818 817 815 814 811 809 807 805 805 804 804 802 800 799 797 795 793 791 789 787 787 786 786 786 786 786 785 785 785 785 786 788 789 791 797 803 802 798 797 799 802 805 808 811 813 816 818 821 824 826 828 830 832 834 836 838 839 840 841 843 844 845 846 846 847 847 847 847 847 846 846 846 846 846 845
828 827 826 826 825 824 823 821 820 818 817 815 814 813 811 809 806 804 802 800 799 799 798 796 795 793 791 789 787 786 785 785 784 784 784 784 784 785 785 786 787 789 791 794 799 803 800 795 795 798 801 804 807 810 812 815 818 820 823 825 827 829 831 834 835 837 838 839 841 843 844 845 846 846 846 846 846 846 845 845 845 846 845 845 844
827 826 826 825 824 823 821 820 818 817 815 814 812 811 810 808 807 804 802 799 796 794 793 792 792 791 789 788 786 785 784 784 783 782 782 783 783 784 786 787 788 790 794 797 801 801 798 794 794 797 800 803 806 809 812 815 817 820 822 825 827 829 831 833 834 836 837 839 841 843 844 845 845 845 845 845 845 845 844 844 844 845 845 844 843
826 825 825 824 823 821 820 819 817 815 814 812 811 810 808 807 805 804 802 800 797 794 791 789 789 788 788 787 786 784 784 784 783 782 781 781 783 784 786 789 792 794 798 800 800 797 796 795 796 798 800 803 806 809 812 815 817 819 822 824 826 828 830 832 834 836 838 839 841 842 843 844 844 844 844 844 844 844 844 844 844 844 844 843 842
824 824 823 822 821 820 819 817 816 814 812 811 809 808 806 805 803 802 800 799 797 795 792 789 787 786 786 786 785 783 782 783 783 782 780 780 781 783 785 787 791 795 799 799 796 793 792 795 798 801 802 804 807 810 813 815 818 820 822 824 826 828 829 831 834 835 837 839 841 842 842 842 843 843 844 844 844 844 844 844 844 844 843 842 841
823 823 822 821 820 818 817 815 814 812 810 809 807 805 804 802 801 799 798 796 794 793 791 789 787 785 783 783 783 782 780 780 781 781 780 780 781 782 784 785 788 793 797 797 794 792 792 795 799 801 803 804 807 810 813 816 818 821 822 824 826 827 829 831 833 835 837 839 840 841 842 842 843 843 843 843 844 844 844 844 844 843 842 841 840
822 821 820 819 818 817 815 814 812 810 808 806 805 803 801 800 798 797 795 794 792 791 789 788 787 785 783 782 782 781 780 779 780 780 781 781 782 783 785 787 789 792 795 795 794 793 794 797 801 803 805 806 808 811 814 816 819 821 822 824 826 828 829 831 833 835 837 839 840 841 842 842 843 843 843 843 843 843 844 844 843 842 841 840 839
821 820 820 818 817 815 814 812 810 808 806 805 803 802 800 798 796 794 793 791 790 789 788 786 785 784 782 781 781 781 780 780 780 782 782 782 783 785 786 788 789 792 794 796 796 796 797 799 802 805 807 807 808 811 814 817 819 821 822 824 826 828 830 831 833 835 837 839 840 841 841 842 842 842 842 842 842 843 843 843 843 842 840 839 837
820 820 819 818 816 815 813 811 810 808 806 804 803 801 799 797 794 792 790 789 788 787 786 785 784 782 781 780 781 781 781 781 782 783 783 782 783 784 786 787 789 792 795 797 798 799 800 801 803 805 807 808 809 811 814 817 819 821 823 825 826 828 829 831 833 835 837 838 840 840 841 841 842 842 842 842 842 842 842 842 842 841 839 838 836
820 819 818 817 816 814 812 811 809 808 806 804 802 800 798 796 794 791 789 787 786 786 785 784 783 781 781 781 781 781 782 782 783 785 786 784 784 785 786 788 790 792 795 797 798 799 800 802 803 805 807 808 810 812 814 817 819 821 823 825 826 828 829 831 833 835 836 838 839 840 840 841 841 841 841 842 842 842 842 841 840 839 838 837 835
820 819 818 817 816 814 812 811 810 808 806 804 802 800 798 796 794 791 788 786 786 785 785 784 784 782 782 782 783 783 783 783 784 786 787 787 786 787 788 790 791 793 795 797 798 799 800 802 803 805 807 808 810 813 815 817 819 821 823 825 827 828 830 831 833 835 836 837 838 839 839 840 841 841 842 842 842 842 841 840 839 838 837 835 834
819 818 817 817 816 814 813 811 810 808 806 804 802 800 798 796 795 793 791 788 787 786 785 785 785 785 784 785 785 785 784 784 785 786 787 788 788 789 790 791 792 794 796 797 798 800 801 803 804 806 808 809 811 814 816 818 820 822 824 825 827 828 830 831 833 834 835 836 837 838 839 840 841 841 842 842 842 841 840 839 838 837 836 834 833
819 818 817 816 815 814 813 812 810 809 807 805 803 801 799 798 796 795 793 791 790 788 787 787 787 787 787 787 787 786 786 786 787 788 788 789 789 790 791 793 794 795 796 798 800 801 802 803 805 807 809 811 813 815 817 819 821 823 825 826 827 829 830 831 833 834 835 835 836 837 838 839 840 841 841 841 841 840 839 838 837 836 835 834 832
819 818 817 816 815 814 813 812 811 810 808 806 804 803 801 800 798 797 796 794 792 791 790 789 789 789 789 789 789 789 789 789 790 790 790 790 791 792 793 795 796 798 799 801 802 803 804 806 807 808 811 813 815 816 818 821 824 825 827 827 828 829 830 831 833 834 834 835 836 837 838 839 840 840 840 840 840 839 839 837 836 835 834 833 832
819 818 817 816 815 815 814 813 811 810 809 807 806 804 803 802 800 799 798 797 795 794 793 792 792 792 791 792 792 792 792 792 792 792 792 793 794 795 796 798 800 801 803 804 805 807 808 809 809 811 813 815 817 818 821 823 825 827 828 829 829 830 830 831 833 834 834 835 836 837 838 838 839 839 840 840 839 839 838 836 835 834 833 832 831
818 818 817 817 816 815 815 813 812 811 810 809 807 806 805 804 802 801 800 799 798 797 796 795 795 795 795 795 795 795 795 794 794 795 796 797 797 799 800 801 802 804 806 807 808 809 811 812 813 814 816 818 819 821 823 824 826 828 829 829 830 830 831 832 833 834 835 836 836 837 837 838 838 838 839 839 838 838 837 835 834 833 832 831 830
818 817 818 818 817 816 815 814 813 812 811 810 808 807 806 805 804 803 803 801 800 799 799 799 799 799 798 799 799 798 798 798 798 799 800 800 801 802 803 804 806 807 809 810 810 812 813 815 816 816 818 820 822 823 824 825 826 828 829 830 831 831 832 833 834 834 835 836 837 837 837 838 838 838 838 838 838 837 835 834 833 832 832 831 830
818 817 817 818 817 817 816 815 814 813 812 811 810 809 808 807 806 806 805 804 803 802 802 802 803 803 803 803 803 802 802 802 802 803 804 805 805 806 807 808 809 811 812 813 813 814 815 816 817 819 821 823 824 825 826 826 828 829 830 831 831 832 833 834 834 835 836 837 837 837 837 838 838 838 838 837 837 836 835 834 833 832 831 830 829
818 817 817 817 817 817 817 816 815 814 813 812 811 810 809 809 808 808 807 806 805 805 805 805 805 806 806 806 806 806 806 806 806 807 808 809 809 810 811 812 813 814 815 815 816 816 817 818 819 822 824 825 826 827 828 828 830 831 831 832 832 833 834 834 835 835 836 837 837 837 838 838 838 838 837 836 836 835 834 833 832 832 831 830 829
817 817 817 817 817 817 817 817 817 816 815 814 813 812 812 811 810 810 809 808 808 808 808 807 807 808 808 808 808 808 809 809 810 811 812 812 813 813 814 815 816 817 817 818 819 819 820 821 823 825 826 827 828 829 829 830 831 832 832 832 833 833 834 835 835 836 836 837 837 838 838 838 838 837 836 836 835 834 834 833 832 832 831 830 829